Year,Month,Day,Hour,Minute,Value (Times are PST for temperature in C)
2014,11,28,00,00,7.90
2014,11,28,00,01,7.90
2014,11,28,00,02,7.90
2014,11,28,00,03,7.90
2014,11,28,00,04,7.90
2014,11,28,00,05,7.90
2014,11,28,00,06,7.90
2014,11,28,00,07,7.90
2014,11,28,00,08,7.90
2014,11,28,00,09,7.90
2014,11,28,00,10,7.90
2014,11,28,00,11,7.90
2014,11,28,00,12,7.90
2014,11,28,00,13,7.90
2014,11,28,00,14,7.90
2014,11,28,00,15,7.90
2014,11,28,00,16,7.90
2014,11,28,00,17,7.90
2014,11,28,00,18,7.90
2014,11,28,00,19,7.90
2014,11,28,00,20,7.80
2014,11,28,00,21,7.80
2014,11,28,00,22,7.80
2014,11,28,00,23,7.70
2014,11,28,00,24,7.70
2014,11,28,00,25,7.70
2014,11,28,00,26,7.70
2014,11,28,00,27,7.60
2014,11,28,00,28,7.60
2014,11,28,00,29,7.50
2014,11,28,00,30,7.40
2014,11,28,00,31,7.40
2014,11,28,00,32,7.30
2014,11,28,00,33,7.30
2014,11,28,00,34,7.30
2014,11,28,00,35,7.30
2014,11,28,00,36,7.20
2014,11,28,00,37,7.20
2014,11,28,00,38,7.20
2014,11,28,00,39,7.20
2014,11,28,00,40,7.10
2014,11,28,00,41,7.10
2014,11,28,00,42,7.10
2014,11,28,00,43,7.10
2014,11,28,00,44,7.10
2014,11,28,00,45,7.10
2014,11,28,00,46,7.10
2014,11,28,00,47,7.10
2014,11,28,00,48,7.10
2014,11,28,00,49,7.10
2014,11,28,00,50,7.10
2014,11,28,00,51,7.10
2014,11,28,00,52,7.10
2014,11,28,00,53,7.20
2014,11,28,00,54,7.20
2014,11,28,00,55,7.20
2014,11,28,00,56,7.20
2014,11,28,00,57,7.20
2014,11,28,00,58,7.30
2014,11,28,00,59,7.30
2014,11,28,01,00,7.30
2014,11,28,01,01,7.30
2014,11,28,01,02,7.30
2014,11,28,01,03,7.30
2014,11,28,01,04,7.40
2014,11,28,01,05,7.40
2014,11,28,01,06,7.40
2014,11,28,01,07,7.40
2014,11,28,01,08,7.40
2014,11,28,01,09,7.40
2014,11,28,01,10,7.40
2014,11,28,01,11,7.40
2014,11,28,01,12,7.40
2014,11,28,01,13,7.40
2014,11,28,01,14,7.40
2014,11,28,01,15,7.40
2014,11,28,01,16,7.40
2014,11,28,01,17,7.40
2014,11,28,01,18,7.40
2014,11,28,01,19,7.50
2014,11,28,01,20,7.50
2014,11,28,01,21,7.50
2014,11,28,01,22,7.50
2014,11,28,01,23,7.50
2014,11,28,01,24,7.50
2014,11,28,01,25,7.50
2014,11,28,01,26,7.50
2014,11,28,01,27,7.60
2014,11,28,01,28,7.60
2014,11,28,01,29,7.50
2014,11,28,01,30,7.60
2014,11,28,01,31,7.60
2014,11,28,01,32,7.60
2014,11,28,01,33,7.60
2014,11,28,01,34,7.60
2014,11,28,01,35,7.60
2014,11,28,01,36,7.60
2014,11,28,01,37,7.60
2014,11,28,01,38,7.60
2014,11,28,01,39,7.60
2014,11,28,01,40,7.60
2014,11,28,01,41,7.60
2014,11,28,01,42,7.60
2014,11,28,01,43,7.60
2014,11,28,01,44,7.60
2014,11,28,01,45,7.60
2014,11,28,01,46,7.60
2014,11,28,01,47,7.60
2014,11,28,01,48,7.60
2014,11,28,01,49,7.60
2014,11,28,01,50,7.60
2014,11,28,01,51,7.60
2014,11,28,01,52,7.60
2014,11,28,01,53,7.60
2014,11,28,01,54,7.60
2014,11,28,01,55,7.60
2014,11,28,01,56,7.60
2014,11,28,01,57,7.60
2014,11,28,01,58,7.70
2014,11,28,01,59,7.70
2014,11,28,02,00,7.70
2014,11,28,02,01,7.70
2014,11,28,02,02,7.70
2014,11,28,02,03,7.70
2014,11,28,02,04,7.70
2014,11,28,02,05,7.70
2014,11,28,02,06,7.70
2014,11,28,02,07,7.70
2014,11,28,02,08,7.70
2014,11,28,02,09,7.70
2014,11,28,02,10,7.70
2014,11,28,02,11,7.70
2014,11,28,02,12,7.70
2014,11,28,02,13,7.70
2014,11,28,02,14,7.70
2014,11,28,02,15,7.80
2014,11,28,02,16,7.80
2014,11,28,02,17,7.80
2014,11,28,02,18,7.80
2014,11,28,02,19,7.80
2014,11,28,02,20,7.80
2014,11,28,02,21,7.80
2014,11,28,02,22,7.90
2014,11,28,02,23,7.90
2014,11,28,02,24,7.90
2014,11,28,02,25,7.90
2014,11,28,02,26,7.90
2014,11,28,02,27,7.90
2014,11,28,02,28,7.90
2014,11,28,02,29,7.90
2014,11,28,02,30,7.90
2014,11,28,02,31,7.90
2014,11,28,02,32,7.90
2014,11,28,02,33,7.90
2014,11,28,02,34,7.90
2014,11,28,02,35,7.90
2014,11,28,02,36,7.90
2014,11,28,02,37,7.90
2014,11,28,02,38,7.90
2014,11,28,02,39,7.90
2014,11,28,02,40,7.90
2014,11,28,02,41,7.90
2014,11,28,02,42,7.90
2014,11,28,02,43,7.90
2014,11,28,02,44,7.90
2014,11,28,02,45,7.90
2014,11,28,02,46,7.90
2014,11,28,02,47,7.90
2014,11,28,02,48,7.90
2014,11,28,02,49,7.90
2014,11,28,02,50,7.90
2014,11,28,02,51,7.80
2014,11,28,02,52,7.80
2014,11,28,02,53,7.80
2014,11,28,02,54,7.80
2014,11,28,02,55,7.80
2014,11,28,02,56,7.80
2014,11,28,02,57,7.80
2014,11,28,02,58,7.80
2014,11,28,02,59,7.80
2014,11,28,03,00,7.80
2014,11,28,03,01,7.80
2014,11,28,03,02,7.80
2014,11,28,03,03,7.80
2014,11,28,03,04,7.80
2014,11,28,03,05,7.80
2014,11,28,03,06,7.80
2014,11,28,03,07,7.80
2014,11,28,03,08,7.90
2014,11,28,03,09,7.90
2014,11,28,03,10,7.90
2014,11,28,03,11,7.90
2014,11,28,03,12,7.90
2014,11,28,03,13,7.90
2014,11,28,03,14,7.90
2014,11,28,03,15,7.80
2014,11,28,03,16,7.80
2014,11,28,03,17,7.80
2014,11,28,03,18,7.80
2014,11,28,03,19,7.80
2014,11,28,03,20,7.80
2014,11,28,03,21,7.80
2014,11,28,03,22,7.80
2014,11,28,03,23,7.80
2014,11,28,03,24,7.80
2014,11,28,03,25,7.80
2014,11,28,03,26,7.80
2014,11,28,03,27,7.80
2014,11,28,03,28,7.80
2014,11,28,03,29,7.80
2014,11,28,03,30,7.80
2014,11,28,03,31,7.70
2014,11,28,03,32,7.70
2014,11,28,03,33,7.70
2014,11,28,03,34,7.70
2014,11,28,03,35,7.60
2014,11,28,03,36,7.60
2014,11,28,03,37,7.60
2014,11,28,03,38,7.60
2014,11,28,03,39,7.50
2014,11,28,03,40,7.50
2014,11,28,03,41,7.50
2014,11,28,03,42,7.50
2014,11,28,03,43,7.50
2014,11,28,03,44,7.50
2014,11,28,03,45,7.50
2014,11,28,03,46,7.50
2014,11,28,03,47,7.50
2014,11,28,03,48,7.50
2014,11,28,03,49,7.50
2014,11,28,03,50,7.50
2014,11,28,03,51,7.50
2014,11,28,03,52,7.50
2014,11,28,03,53,7.40
2014,11,28,03,54,7.40
2014,11,28,03,55,7.40
2014,11,28,03,56,7.40
2014,11,28,03,57,7.40
2014,11,28,03,58,7.30
2014,11,28,03,59,7.30
2014,11,28,04,00,7.30
2014,11,28,04,01,7.30
2014,11,28,04,02,7.20
2014,11,28,04,03,7.20
2014,11,28,04,04,7.20
2014,11,28,04,05,7.20
2014,11,28,04,06,7.20
2014,11,28,04,07,7.10
2014,11,28,04,08,7.10
2014,11,28,04,09,7.10
2014,11,28,04,10,7.10
2014,11,28,04,11,7.10
2014,11,28,04,12,7.10
2014,11,28,04,13,7.00
2014,11,28,04,14,7.00
2014,11,28,04,15,7.00
2014,11,28,04,16,7.00
2014,11,28,04,17,7.00
2014,11,28,04,18,7.00
2014,11,28,04,19,7.00
2014,11,28,04,20,7.00
2014,11,28,04,21,7.00
2014,11,28,04,22,7.00
2014,11,28,04,23,7.00
2014,11,28,04,24,6.90
2014,11,28,04,25,6.90
2014,11,28,04,26,6.90
2014,11,28,04,27,6.80
2014,11,28,04,28,6.70
2014,11,28,04,29,6.60
2014,11,28,04,30,6.60
2014,11,28,04,31,6.50
2014,11,28,04,32,6.50
2014,11,28,04,33,6.40
2014,11,28,04,34,6.40
2014,11,28,04,35,6.30
2014,11,28,04,36,6.30
2014,11,28,04,37,6.30
2014,11,28,04,38,6.30
2014,11,28,04,39,6.30
2014,11,28,04,40,6.30
2014,11,28,04,41,6.30
2014,11,28,04,42,6.30
2014,11,28,04,43,6.30
2014,11,28,04,44,6.20
2014,11,28,04,45,6.20
2014,11,28,04,46,6.20
2014,11,28,04,47,6.20
2014,11,28,04,48,6.20
2014,11,28,04,49,6.20
2014,11,28,04,50,6.20
2014,11,28,04,51,6.20
2014,11,28,04,52,6.20
2014,11,28,04,53,6.10
2014,11,28,04,54,6.10
2014,11,28,04,55,6.00
2014,11,28,04,56,6.00
2014,11,28,04,57,5.90
2014,11,28,04,58,5.90
2014,11,28,04,59,5.80
2014,11,28,05,00,5.80
2014,11,28,05,01,5.80
2014,11,28,05,02,5.80
2014,11,28,05,03,5.70
2014,11,28,05,04,5.70
2014,11,28,05,05,5.70
2014,11,28,05,06,5.70
2014,11,28,05,07,5.60
2014,11,28,05,08,5.60
2014,11,28,05,09,5.60
2014,11,28,05,10,5.60
2014,11,28,05,11,5.60
2014,11,28,05,12,5.60
2014,11,28,05,13,5.50
2014,11,28,05,14,5.50
2014,11,28,05,15,5.50
2014,11,28,05,16,5.50
2014,11,28,05,17,5.50
2014,11,28,05,18,5.50
2014,11,28,05,19,5.50
2014,11,28,05,20,5.50
2014,11,28,05,21,5.50
2014,11,28,05,22,5.50
2014,11,28,05,23,5.40
2014,11,28,05,24,5.40
2014,11,28,05,25,5.40
2014,11,28,05,26,5.40
2014,11,28,05,27,5.40
2014,11,28,05,28,5.50
2014,11,28,05,29,5.50
2014,11,28,05,30,5.50
2014,11,28,05,31,5.50
2014,11,28,05,32,5.50
2014,11,28,05,33,5.50
2014,11,28,05,34,5.50
2014,11,28,05,35,5.50
2014,11,28,05,36,5.60
2014,11,28,05,37,5.50
2014,11,28,05,38,5.60
2014,11,28,05,39,5.50
2014,11,28,05,40,5.50
2014,11,28,05,41,5.50
2014,11,28,05,42,5.50
2014,11,28,05,43,5.50
2014,11,28,05,44,5.50
2014,11,28,05,45,5.50
2014,11,28,05,46,5.50
2014,11,28,05,47,5.50
2014,11,28,05,48,5.50
2014,11,28,05,49,5.60
2014,11,28,05,50,5.60
2014,11,28,05,51,5.60
2014,11,28,05,52,5.60
2014,11,28,05,53,5.60
2014,11,28,05,54,5.60
2014,11,28,05,55,5.60
2014,11,28,05,56,5.60
2014,11,28,05,57,5.50
2014,11,28,05,58,5.50
2014,11,28,05,59,5.50
2014,11,28,06,00,5.40
2014,11,28,06,01,5.40
2014,11,28,06,02,5.40
2014,11,28,06,03,5.40
2014,11,28,06,04,5.40
2014,11,28,06,05,5.40
2014,11,28,06,06,5.40
2014,11,28,06,07,5.30
2014,11,28,06,08,5.30
2014,11,28,06,09,5.30
2014,11,28,06,10,5.30
2014,11,28,06,11,5.20
2014,11,28,06,12,5.20
2014,11,28,06,13,5.20
2014,11,28,06,14,5.20
2014,11,28,06,15,5.20
2014,11,28,06,16,5.10
2014,11,28,06,17,5.10
2014,11,28,06,18,5.10
2014,11,28,06,19,5.10
2014,11,28,06,20,5.10
2014,11,28,06,21,5.10
2014,11,28,06,22,5.10
2014,11,28,06,23,5.10
2014,11,28,06,24,5.00
2014,11,28,06,25,5.00
2014,11,28,06,26,5.00
2014,11,28,06,27,4.90
2014,11,28,06,28,4.90
2014,11,28,06,29,4.90
2014,11,28,06,30,4.90
2014,11,28,06,31,4.90
2014,11,28,06,32,4.80
2014,11,28,06,33,4.80
2014,11,28,06,34,4.80
2014,11,28,06,35,4.80
2014,11,28,06,36,4.80
2014,11,28,06,37,4.80
2014,11,28,06,38,4.80
2014,11,28,06,39,4.80
2014,11,28,06,40,4.80
2014,11,28,06,41,4.80
2014,11,28,06,42,4.80
2014,11,28,06,43,4.70
2014,11,28,06,44,4.70
2014,11,28,06,45,4.70
2014,11,28,06,46,4.70
2014,11,28,06,47,4.70
2014,11,28,06,48,4.70
2014,11,28,06,49,4.70
2014,11,28,06,50,4.70
2014,11,28,06,51,4.80
2014,11,28,06,52,4.80
2014,11,28,06,53,4.90
2014,11,28,06,54,4.90
2014,11,28,06,55,4.90
2014,11,28,06,56,5.00
2014,11,28,06,57,5.00
2014,11,28,06,58,5.00
2014,11,28,06,59,5.00
2014,11,28,07,00,5.00
2014,11,28,07,01,5.00
2014,11,28,07,02,5.00
2014,11,28,07,03,5.00
2014,11,28,07,04,5.00
2014,11,28,07,05,5.00
2014,11,28,07,06,5.00
2014,11,28,07,07,5.00
2014,11,28,07,08,5.00
2014,11,28,07,09,4.90
2014,11,28,07,10,4.90
2014,11,28,07,11,4.90
2014,11,28,07,12,4.90
2014,11,28,07,13,4.90
2014,11,28,07,14,4.90
2014,11,28,07,15,4.90
2014,11,28,07,16,4.80
2014,11,28,07,17,4.80
2014,11,28,07,18,4.80
2014,11,28,07,19,4.80
2014,11,28,07,20,4.80
2014,11,28,07,21,4.80
2014,11,28,07,22,4.80
2014,11,28,07,23,4.80
2014,11,28,07,24,4.80
2014,11,28,07,25,4.70
2014,11,28,07,26,4.70
2014,11,28,07,27,4.70
2014,11,28,07,28,4.70
2014,11,28,07,29,4.70
2014,11,28,07,30,4.70
2014,11,28,07,31,4.70
2014,11,28,07,32,4.70
2014,11,28,07,33,4.60
2014,11,28,07,34,4.60
2014,11,28,07,35,4.60
2014,11,28,07,36,4.60
2014,11,28,07,37,4.50
2014,11,28,07,38,4.50
2014,11,28,07,39,4.50
2014,11,28,07,40,4.40
2014,11,28,07,41,4.40
2014,11,28,07,42,4.40
2014,11,28,07,43,4.40
2014,11,28,07,44,4.30
2014,11,28,07,45,4.30
2014,11,28,07,46,4.30
2014,11,28,07,47,4.30
2014,11,28,07,48,4.30
2014,11,28,07,49,4.30
2014,11,28,07,50,4.30
2014,11,28,07,51,4.30
2014,11,28,07,52,4.30
2014,11,28,07,53,4.30
2014,11,28,07,54,4.30
2014,11,28,07,55,4.30
2014,11,28,07,56,4.30
2014,11,28,07,57,4.20
2014,11,28,07,58,4.20
2014,11,28,07,59,4.20
2014,11,28,08,00,4.20
2014,11,28,08,01,4.20
2014,11,28,08,02,4.20
2014,11,28,08,03,4.20
2014,11,28,08,04,4.20
2014,11,28,08,05,4.20
2014,11,28,08,06,4.20
2014,11,28,08,07,4.10
2014,11,28,08,08,4.10
2014,11,28,08,09,4.10
2014,11,28,08,10,4.10
2014,11,28,08,11,4.10
2014,11,28,08,12,4.10
2014,11,28,08,13,4.10
2014,11,28,08,14,4.10
2014,11,28,08,15,4.10
2014,11,28,08,16,4.10
2014,11,28,08,17,4.10
2014,11,28,08,18,4.00
2014,11,28,08,19,4.00
2014,11,28,08,20,4.00
2014,11,28,08,21,4.00
2014,11,28,08,22,4.00
2014,11,28,08,23,4.00
2014,11,28,08,24,4.00
2014,11,28,08,25,4.00
2014,11,28,08,26,4.00
2014,11,28,08,27,4.00
2014,11,28,08,28,4.00
2014,11,28,08,29,4.00
2014,11,28,08,30,4.00
2014,11,28,08,31,4.00
2014,11,28,08,32,4.00
2014,11,28,08,33,4.00
2014,11,28,08,34,4.00
2014,11,28,08,35,4.10
2014,11,28,08,36,4.10
2014,11,28,08,37,4.10
2014,11,28,08,38,4.10
2014,11,28,08,39,4.10
2014,11,28,08,40,4.10
2014,11,28,08,41,4.10
2014,11,28,08,42,4.10
2014,11,28,08,43,4.10
2014,11,28,08,44,4.10
2014,11,28,08,45,4.10
2014,11,28,08,46,4.10
2014,11,28,08,47,4.10
2014,11,28,08,48,4.10
2014,11,28,08,49,4.10
2014,11,28,08,50,4.20
2014,11,28,08,51,4.20
2014,11,28,08,52,4.20
2014,11,28,08,53,4.20
2014,11,28,08,54,4.20
2014,11,28,08,55,4.20
2014,11,28,08,56,4.20
2014,11,28,08,57,4.20
2014,11,28,08,58,4.20
2014,11,28,08,59,4.20
2014,11,28,09,00,4.20
2014,11,28,09,01,4.30
2014,11,28,09,02,4.30
2014,11,28,09,03,4.30
2014,11,28,09,04,4.30
2014,11,28,09,05,4.40
2014,11,28,09,06,4.40
2014,11,28,09,07,4.50
2014,11,28,09,08,4.50
2014,11,28,09,09,4.50
2014,11,28,09,10,4.60
2014,11,28,09,11,4.60
2014,11,28,09,12,4.70
2014,11,28,09,13,4.70
2014,11,28,09,14,4.70
2014,11,28,09,15,4.80
2014,11,28,09,16,4.80
2014,11,28,09,17,4.80
2014,11,28,09,18,4.90
2014,11,28,09,19,4.90
2014,11,28,09,20,4.90
2014,11,28,09,21,4.90
2014,11,28,09,22,5.00
2014,11,28,09,23,5.00
2014,11,28,09,24,5.00
2014,11,28,09,25,5.10
2014,11,28,09,26,5.10
2014,11,28,09,27,5.10
2014,11,28,09,28,5.10
2014,11,28,09,29,5.10
2014,11,28,09,30,5.20
2014,11,28,09,31,5.20
2014,11,28,09,32,5.20
2014,11,28,09,33,5.20
2014,11,28,09,34,5.30
2014,11,28,09,35,5.30
2014,11,28,09,36,5.30
2014,11,28,09,37,5.30
2014,11,28,09,38,5.30
2014,11,28,09,39,5.30
2014,11,28,09,40,5.40
2014,11,28,09,41,5.40
2014,11,28,09,42,5.40
2014,11,28,09,43,5.50
2014,11,28,09,44,5.50
2014,11,28,09,45,5.50
2014,11,28,09,46,5.60
2014,11,28,09,47,5.60
2014,11,28,09,48,5.60
2014,11,28,09,49,5.70
2014,11,28,09,50,5.70
2014,11,28,09,51,5.70
2014,11,28,09,52,5.70
2014,11,28,09,53,5.70
2014,11,28,09,54,5.80
2014,11,28,09,55,5.80
2014,11,28,09,56,5.80
2014,11,28,09,57,5.80
2014,11,28,09,58,5.80
2014,11,28,09,59,5.90
2014,11,28,10,00,5.90
2014,11,28,10,01,5.90
2014,11,28,10,02,5.90
2014,11,28,10,03,6.00
2014,11,28,10,04,6.00
2014,11,28,10,05,6.00
2014,11,28,10,06,6.00
2014,11,28,10,07,6.00
2014,11,28,10,08,6.00
2014,11,28,10,09,6.10
2014,11,28,10,10,6.10
2014,11,28,10,11,6.10
2014,11,28,10,12,6.10
2014,11,28,10,13,6.10
2014,11,28,10,14,6.10
2014,11,28,10,15,6.10
2014,11,28,10,16,6.20
2014,11,28,10,17,6.20
2014,11,28,10,18,6.20
2014,11,28,10,19,6.20
2014,11,28,10,20,6.20
2014,11,28,10,21,6.20
2014,11,28,10,22,6.20
2014,11,28,10,23,6.20
2014,11,28,10,24,6.20
2014,11,28,10,25,6.30
2014,11,28,10,26,6.30
2014,11,28,10,27,6.30
2014,11,28,10,28,6.30
2014,11,28,10,29,6.30
2014,11,28,10,30,6.30
2014,11,28,10,31,6.30
2014,11,28,10,32,6.30
2014,11,28,10,33,6.30
2014,11,28,10,34,6.30
2014,11,28,10,35,6.30
2014,11,28,10,36,6.30
2014,11,28,10,37,6.30
2014,11,28,10,38,6.30
2014,11,28,10,39,6.30
2014,11,28,10,40,6.40
2014,11,28,10,41,6.40
2014,11,28,10,42,6.40
2014,11,28,10,43,6.40
2014,11,28,10,44,6.40
2014,11,28,10,45,6.50
2014,11,28,10,46,6.50
2014,11,28,10,47,6.50
2014,11,28,10,48,6.60
2014,11,28,10,49,6.60
2014,11,28,10,50,6.60
2014,11,28,10,51,6.60
2014,11,28,10,52,6.60
2014,11,28,10,53,6.60
2014,11,28,10,54,6.60
2014,11,28,10,55,6.60
2014,11,28,10,56,6.70
2014,11,28,10,57,6.70
2014,11,28,10,58,6.70
2014,11,28,10,59,6.70
2014,11,28,11,00,6.70
2014,11,28,11,01,6.70
2014,11,28,11,02,6.80
2014,11,28,11,03,6.80
2014,11,28,11,04,6.80
2014,11,28,11,05,6.90
2014,11,28,11,06,6.90
2014,11,28,11,07,7.00
2014,11,28,11,08,7.00
2014,11,28,11,09,7.10
2014,11,28,11,10,7.20
2014,11,28,11,11,7.20
2014,11,28,11,12,7.20
2014,11,28,11,13,7.30
2014,11,28,11,14,7.30
2014,11,28,11,15,7.30
2014,11,28,11,16,7.30
2014,11,28,11,17,7.40
2014,11,28,11,18,7.40
2014,11,28,11,19,7.40
2014,11,28,11,20,7.40
2014,11,28,11,21,7.50
2014,11,28,11,22,7.50
2014,11,28,11,23,7.50
2014,11,28,11,24,7.60
2014,11,28,11,25,7.60
2014,11,28,11,26,7.60
2014,11,28,11,27,7.60
2014,11,28,11,28,7.60
2014,11,28,11,29,7.60
2014,11,28,11,30,7.60
2014,11,28,11,31,7.60
2014,11,28,11,32,7.60
2014,11,28,11,33,7.70
2014,11,28,11,34,7.70
2014,11,28,11,35,7.70
2014,11,28,11,36,7.70
2014,11,28,11,37,7.70
2014,11,28,11,38,7.70
2014,11,28,11,39,7.70
2014,11,28,11,40,7.70
2014,11,28,11,41,7.70
2014,11,28,11,42,7.70
2014,11,28,11,43,7.70
2014,11,28,11,44,7.70
2014,11,28,11,45,7.70
2014,11,28,11,46,7.70
2014,11,28,11,47,7.70
2014,11,28,11,48,7.70
2014,11,28,11,49,7.70
2014,11,28,11,50,7.70
2014,11,28,11,51,7.70
2014,11,28,11,52,7.70
2014,11,28,11,53,7.60
2014,11,28,11,54,7.60
2014,11,28,11,55,7.60
2014,11,28,11,56,7.60
2014,11,28,11,57,7.60
2014,11,28,11,58,7.60
2014,11,28,11,59,7.60
2014,11,28,12,00,7.50
2014,11,28,12,01,7.50
2014,11,28,12,02,7.50
2014,11,28,12,03,7.50
2014,11,28,12,04,7.50
2014,11,28,12,05,7.40
2014,11,28,12,06,7.40
2014,11,28,12,07,7.40
2014,11,28,12,08,7.40
2014,11,28,12,09,7.40
2014,11,28,12,10,7.40
2014,11,28,12,11,7.40
2014,11,28,12,12,7.40
2014,11,28,12,13,7.40
2014,11,28,12,14,7.40
2014,11,28,12,15,7.40
2014,11,28,12,16,7.40
2014,11,28,12,17,7.30
2014,11,28,12,18,7.30
2014,11,28,12,19,7.30
2014,11,28,12,20,7.30
2014,11,28,12,21,7.20
2014,11,28,12,22,7.30
2014,11,28,12,23,7.30
2014,11,28,12,24,7.30
2014,11,28,12,25,7.30
2014,11,28,12,26,7.30
2014,11,28,12,27,7.30
2014,11,28,12,28,7.40
2014,11,28,12,29,7.40
2014,11,28,12,30,7.40
2014,11,28,12,31,7.40
2014,11,28,12,32,7.40
2014,11,28,12,33,7.40
2014,11,28,12,34,7.40
2014,11,28,12,35,7.40
2014,11,28,12,36,7.40
2014,11,28,12,37,7.40
2014,11,28,12,38,7.40
2014,11,28,12,39,7.30
2014,11,28,12,40,7.30
2014,11,28,12,41,7.20
2014,11,28,12,42,7.20
2014,11,28,12,43,7.20
2014,11,28,12,44,7.20
2014,11,28,12,45,7.20
2014,11,28,12,46,7.20
2014,11,28,12,47,7.20
2014,11,28,12,48,7.20
2014,11,28,12,49,7.20
2014,11,28,12,50,7.20
2014,11,28,12,51,7.20
2014,11,28,12,52,7.20
2014,11,28,12,53,7.20
2014,11,28,12,54,7.20
2014,11,28,12,55,7.20
2014,11,28,12,56,7.10
2014,11,28,12,57,7.10
2014,11,28,12,58,7.10
2014,11,28,12,59,7.10
2014,11,28,13,00,7.10
2014,11,28,13,01,7.10
2014,11,28,13,02,7.00
2014,11,28,13,03,7.00
2014,11,28,13,04,6.90
2014,11,28,13,05,6.90
2014,11,28,13,06,6.90
2014,11,28,13,07,6.90
2014,11,28,13,08,6.90
2014,11,28,13,09,6.90
2014,11,28,13,10,7.00
2014,11,28,13,11,7.00
2014,11,28,13,12,7.00
2014,11,28,13,13,7.00
2014,11,28,13,14,7.00
2014,11,28,13,15,7.00
2014,11,28,13,16,7.00
2014,11,28,13,17,7.00
2014,11,28,13,18,7.00
2014,11,28,13,19,7.10
2014,11,28,13,20,7.00
2014,11,28,13,21,7.00
2014,11,28,13,22,7.00
2014,11,28,13,23,7.00
2014,11,28,13,24,7.00
2014,11,28,13,25,7.10
2014,11,28,13,26,7.10
2014,11,28,13,27,7.10
2014,11,28,13,28,7.10
2014,11,28,13,29,7.10
2014,11,28,13,30,7.10
2014,11,28,13,31,7.10
2014,11,28,13,32,7.10
2014,11,28,13,33,7.10
2014,11,28,13,34,7.10
2014,11,28,13,35,7.10
2014,11,28,13,36,7.10
2014,11,28,13,37,7.10
2014,11,28,13,38,7.10
2014,11,28,13,39,7.00
2014,11,28,13,40,7.00
2014,11,28,13,41,7.00
2014,11,28,13,42,6.90
2014,11,28,13,43,6.90
2014,11,28,13,44,6.90
2014,11,28,13,45,6.80
2014,11,28,13,46,6.80
2014,11,28,13,47,6.80
2014,11,28,13,48,6.80
2014,11,28,13,49,6.80
2014,11,28,13,50,6.80
2014,11,28,13,51,6.80
2014,11,28,13,52,6.80
2014,11,28,13,53,6.80
2014,11,28,13,54,6.80
2014,11,28,13,55,6.80
2014,11,28,13,56,6.80
2014,11,28,13,57,6.80
2014,11,28,13,58,6.70
2014,11,28,13,59,6.70
2014,11,28,14,00,6.70
2014,11,28,14,01,6.70
2014,11,28,14,02,6.70
2014,11,28,14,03,6.70
2014,11,28,14,04,6.70
2014,11,28,14,05,6.70
2014,11,28,14,06,6.70
2014,11,28,14,07,6.70
2014,11,28,14,08,6.70
2014,11,28,14,09,6.70
2014,11,28,14,10,6.70
2014,11,28,14,11,6.80
2014,11,28,14,12,6.80
2014,11,28,14,13,6.70
2014,11,28,14,14,6.80
2014,11,28,14,15,6.80
2014,11,28,14,16,6.80
2014,11,28,14,17,6.80
2014,11,28,14,18,6.70
2014,11,28,14,19,6.70
2014,11,28,14,20,6.70
2014,11,28,14,21,6.60
2014,11,28,14,22,6.60
2014,11,28,14,23,6.60
2014,11,28,14,24,6.60
2014,11,28,14,25,6.60
2014,11,28,14,26,6.60
2014,11,28,14,27,6.60
2014,11,28,14,28,6.60
2014,11,28,14,29,6.60
2014,11,28,14,30,6.60
2014,11,28,14,31,6.50
2014,11,28,14,32,6.50
2014,11,28,14,33,6.50
2014,11,28,14,34,6.50
2014,11,28,14,35,6.50
2014,11,28,14,36,6.50
2014,11,28,14,37,6.50
2014,11,28,14,38,6.50
2014,11,28,14,39,6.50
2014,11,28,14,40,6.60
2014,11,28,14,41,6.60
2014,11,28,14,42,6.60
2014,11,28,14,43,6.60
2014,11,28,14,44,6.60
2014,11,28,14,45,6.60
2014,11,28,14,46,6.60
2014,11,28,14,47,6.60
2014,11,28,14,48,6.60
2014,11,28,14,49,6.60
2014,11,28,14,50,6.50
2014,11,28,14,51,6.50
2014,11,28,14,52,6.50
2014,11,28,14,53,6.40
2014,11,28,14,54,6.40
2014,11,28,14,55,6.40
2014,11,28,14,56,6.30
2014,11,28,14,57,6.40
2014,11,28,14,58,6.40
2014,11,28,14,59,6.40
2014,11,28,15,00,6.30
2014,11,28,15,01,6.30
2014,11,28,15,02,6.30
2014,11,28,15,03,6.30
2014,11,28,15,04,6.30
2014,11,28,15,05,6.30
2014,11,28,15,06,6.20
2014,11,28,15,07,6.20
2014,11,28,15,08,6.20
2014,11,28,15,09,6.20
2014,11,28,15,10,6.10
2014,11,28,15,11,6.10
2014,11,28,15,12,6.10
2014,11,28,15,13,6.10
2014,11,28,15,14,6.00
2014,11,28,15,15,6.00
2014,11,28,15,16,6.00
2014,11,28,15,17,6.00
2014,11,28,15,18,6.00
2014,11,28,15,19,6.00
2014,11,28,15,20,6.00
2014,11,28,15,21,6.00
2014,11,28,15,22,5.90
2014,11,28,15,23,5.90
2014,11,28,15,24,5.90
2014,11,28,15,25,5.90
2014,11,28,15,26,5.80
2014,11,28,15,27,5.80
2014,11,28,15,28,5.80
2014,11,28,15,29,5.70
2014,11,28,15,30,5.70
2014,11,28,15,31,5.60
2014,11,28,15,32,5.60
2014,11,28,15,33,5.60
2014,11,28,15,34,5.50
2014,11,28,15,35,5.50
2014,11,28,15,36,5.50
2014,11,28,15,37,5.40
2014,11,28,15,38,5.40
2014,11,28,15,39,5.40
2014,11,28,15,40,5.30
2014,11,28,15,41,5.30
2014,11,28,15,42,5.30
2014,11,28,15,43,5.30
2014,11,28,15,44,5.20
2014,11,28,15,45,5.20
2014,11,28,15,46,5.20
2014,11,28,15,47,5.20
2014,11,28,15,48,5.20
2014,11,28,15,49,5.20
2014,11,28,15,50,5.20
2014,11,28,15,51,5.20
2014,11,28,15,52,5.20
2014,11,28,15,53,5.20
2014,11,28,15,54,5.20
2014,11,28,15,55,5.10
2014,11,28,15,56,5.10
2014,11,28,15,57,5.10
2014,11,28,15,58,5.10
2014,11,28,15,59,5.10
2014,11,28,16,00,5.10
2014,11,28,16,01,5.00
2014,11,28,16,02,5.00
2014,11,28,16,03,5.00
2014,11,28,16,04,5.00
2014,11,28,16,05,5.00
2014,11,28,16,06,4.90
2014,11,28,16,07,4.90
2014,11,28,16,08,4.90
2014,11,28,16,09,4.90
2014,11,28,16,10,4.90
2014,11,28,16,11,4.90
2014,11,28,16,12,4.90
2014,11,28,16,13,4.90
2014,11,28,16,14,4.90
2014,11,28,16,15,4.90
2014,11,28,16,16,4.90
2014,11,28,16,17,4.80
2014,11,28,16,18,4.80
2014,11,28,16,19,4.80
2014,11,28,16,20,4.80
2014,11,28,16,21,4.70
2014,11,28,16,22,4.70
2014,11,28,16,23,4.70
2014,11,28,16,24,4.70
2014,11,28,16,25,4.70
2014,11,28,16,26,4.70
2014,11,28,16,27,4.70
2014,11,28,16,28,4.70
2014,11,28,16,29,4.70
2014,11,28,16,30,4.70
2014,11,28,16,31,4.70
2014,11,28,16,32,4.70
2014,11,28,16,33,4.70
2014,11,28,16,34,4.70
2014,11,28,16,35,4.70
2014,11,28,16,36,4.70
2014,11,28,16,37,4.70
2014,11,28,16,38,4.70
2014,11,28,16,39,4.70
2014,11,28,16,40,4.60
2014,11,28,16,41,4.60
2014,11,28,16,42,4.60
2014,11,28,16,43,4.60
2014,11,28,16,44,4.60
2014,11,28,16,45,4.60
2014,11,28,16,46,4.60
2014,11,28,16,47,4.60
2014,11,28,16,48,4.50
2014,11,28,16,49,4.50
2014,11,28,16,50,4.50
2014,11,28,16,51,4.50
2014,11,28,16,52,4.50
2014,11,28,16,53,4.50
2014,11,28,16,54,4.50
2014,11,28,16,55,4.50
2014,11,28,16,56,4.50
2014,11,28,16,57,4.50
2014,11,28,16,58,4.50
2014,11,28,16,59,4.50
2014,11,28,17,00,4.40
2014,11,28,17,01,4.50
2014,11,28,17,02,4.50
2014,11,28,17,03,4.50
2014,11,28,17,04,4.40
2014,11,28,17,05,4.40
2014,11,28,17,06,4.40
2014,11,28,17,07,4.40
2014,11,28,17,08,4.40
2014,11,28,17,09,4.40
2014,11,28,17,10,4.40
2014,11,28,17,11,4.40
2014,11,28,17,12,4.40
2014,11,28,17,13,4.30
2014,11,28,17,14,4.40
2014,11,28,17,15,4.40
2014,11,28,17,16,4.40
2014,11,28,17,17,4.40
2014,11,28,17,18,4.30
2014,11,28,17,19,4.30
2014,11,28,17,20,4.30
2014,11,28,17,21,4.30
2014,11,28,17,22,4.30
2014,11,28,17,23,4.30
2014,11,28,17,24,4.30
2014,11,28,17,25,4.30
2014,11,28,17,26,4.40
2014,11,28,17,27,4.40
2014,11,28,17,28,4.40
2014,11,28,17,29,4.40
2014,11,28,17,30,4.40
2014,11,28,17,31,4.40
2014,11,28,17,32,4.30
2014,11,28,17,33,4.30
2014,11,28,17,34,4.30
2014,11,28,17,35,4.20
2014,11,28,17,36,4.20
2014,11,28,17,37,4.20
2014,11,28,17,38,4.20
2014,11,28,17,39,4.20
2014,11,28,17,40,4.10
2014,11,28,17,41,4.10
2014,11,28,17,42,4.20
2014,11,28,17,43,4.10
2014,11,28,17,44,4.10
2014,11,28,17,45,4.10
2014,11,28,17,46,4.10
2014,11,28,17,47,4.10
2014,11,28,17,48,4.10
2014,11,28,17,49,4.10
2014,11,28,17,50,4.10
2014,11,28,17,51,4.10
2014,11,28,17,52,4.00
2014,11,28,17,53,4.00
2014,11,28,17,54,4.00
2014,11,28,17,55,3.90
2014,11,28,17,56,3.90
2014,11,28,17,57,3.90
2014,11,28,17,58,3.90
2014,11,28,17,59,3.80
2014,11,28,18,00,3.80
2014,11,28,18,01,3.80
2014,11,28,18,02,3.80
2014,11,28,18,03,3.80
2014,11,28,18,04,3.70
2014,11,28,18,05,3.70
2014,11,28,18,06,3.70